Location: JAPAN
(35.1974°N, 137.0216°E)
Time: 20:45:20
(UTC+09:00)

ISS - Visible Passes

Search period start: 23 February 2017 00:00
Search period end: 05 March 2017 00:00
Orbit: 399 x 408 km, 51.6° (Epoch: 23 February)

Date Brightness Start Highest point End Pass type
(mag) Time Alt. Az. Time Alt. Az. Time Alt. Az.
28 Feb -0.5 05:28:07 10° S 05:30:30 19° SE 05:32:55 10° E visible
02 Mar -2.6 05:18:25 10° SSW 05:21:37 52° SE 05:24:50 10° ENE visible
03 Mar -1.3 04:28:43 23° SE 04:29:09 24° SE 04:31:52 10° ENE visible
04 Mar -3.1 05:11:30 30° WSW 05:12:49 53° NW 05:16:04 10° NE visible
